PulseSat

PulseSat

MOLNIYA 3-24

Last updated on Dec. 9, 2018, 12:08 a.m. UTC

1 15738U 85040A   18341.31411828  .00000037  00000-0  63189-2 0  9995
2 15738  64.1547 293.1224 6504151 257.7326 342.6917  2.55629942270937
UTC
Height (km)
Latitude
Longitude
Inclination
Orbital Period

Next 30 passes for location: Hong Kong

Rise time Rise Azimuth (degrees) Set time Set Azimuth (degrees) Duration Max altitude (degrees)

No matching passes for this satellites

PulseSat

PulseSat is the new satellites software and hardware trackering solution by Pulsely.
Satellite Two Line Element Set source: US Air Force Space Command

Download PulseSat for iOS
© 2017 Pulsely Limited